PAX377 FIMP-FMEE

Flight info

Callsign PAX377
Flight time 0h 33m
Altitude 20000
Route ESTEK DCT MP531 DCT GENOV DCT MP612 DCT MP224 DCT SOBAT SOBAT2R
Aircraft A332/H-SDE3GHIJ2J3J5M1RVWXY/LB2D1

Departure

Time 2026-04-24 10:00
Airport Sir Seewoosagur Ramgoolam International Airport (FIMP)

Arrival

Time 2026-04-24 10:33
Airport Roland Garros Airport (FMEE)
Time Latitude Longitude Altitude Speed Heading
2026-04-24 09:51 -20.42669 57.67470 198 ft 0 kts 309°
2026-04-24 09:55 -20.42666 57.67466 198 ft 2 kts 303°
2026-04-24 09:55 -20.42660 57.67453 199 ft 4 kts 289°
2026-04-24 09:56 -20.42653 57.67416 200 ft 6 kts 275°
2026-04-24 09:56 -20.42649 57.67366 202 ft 8 kts 277°
2026-04-24 09:56 -20.42625 57.67273 206 ft 22 kts 292°
2026-04-24 09:56 -20.42540 57.67096 212 ft 18 kts 297°
2026-04-24 09:57 -20.42490 57.66991 216 ft 14 kts 296°
2026-04-24 09:57 -20.42464 57.66936 219 ft 11 kts 296°
2026-04-24 09:57 -20.42427 57.66891 221 ft 7 kts 348°
2026-04-24 09:57 -20.42382 57.66906 219 ft 8 kts 32°
2026-04-24 09:58 -20.42343 57.66949 216 ft 9 kts 84°
2026-04-24 09:58 -20.42384 57.67036 212 ft 11 kts 121°
2026-04-24 09:58 -20.42393 57.67053 211 ft 0 kts 117°
2026-04-24 09:59 -20.42401 57.67070 211 ft 18 kts 116°
2026-04-24 09:59 -20.42509 57.67293 202 ft 83 kts 117°
2026-04-24 10:00 -20.43094 57.68510 287 ft 180 kts 116°
2026-04-24 10:00 -20.43734 57.69721 1140 ft 188 kts 121°
2026-04-24 10:00 -20.44227 57.70479 1718 ft 186 kts 126°
2026-04-24 10:00 -20.45224 57.72084 2374 ft 208 kts 129°
2026-04-24 10:01 -20.46023 57.72704 2697 ft 221 kts 152°
2026-04-24 10:01 -20.47605 57.72962 3235 ft 248 kts 184°
2026-04-24 10:01 -20.49934 57.72187 4151 ft 273 kts 195°
2026-04-24 10:01 -20.51144 57.71793 4798 ft 277 kts 193°
2026-04-24 10:02 -20.53378 57.70373 6136 ft 289 kts 227°
2026-04-24 10:02 -20.54371 57.68507 7132 ft 296 kts 253°
2026-04-24 10:02 -20.54535 57.66306 8115 ft 301 kts 279°
2026-04-24 10:02 -20.54150 57.64882 8755 ft 302 kts 296°
2026-04-24 10:03 -20.52777 57.62261 10077 ft 307 kts 300°
2026-04-24 10:03 -20.52129 57.60904 10743 ft 310 kts 296°
2026-04-24 10:03 -20.51260 57.58794 11727 ft 314 kts 293°
2026-04-24 10:03 -20.50188 57.55881 13012 ft 320 kts 291°
2026-04-24 10:04 -20.49397 57.53659 13983 ft 325 kts 291°
2026-04-24 10:04 -20.48564 57.51310 14562 ft 347 kts 291°
2026-04-24 10:04 -20.47684 57.48837 15036 ft 370 kts 291°
2026-04-24 10:04 -20.47154 57.47076 15327 ft 386 kts 283°
2026-04-24 10:05 -20.47059 57.43148 15893 ft 417 kts 262°
2026-04-24 10:05 -20.47595 57.40016 16099 ft 443 kts 257°
2026-04-24 10:05 -20.48068 57.37871 16114 ft 447 kts 256°
2026-04-24 10:05 -20.49042 57.33619 16107 ft 446 kts 256°
2026-04-24 10:06 -20.49525 57.31459 16106 ft 446 kts 256°
2026-04-24 10:06 -20.51152 57.23961 16106 ft 447 kts 257°
2026-04-24 10:06 -20.51843 57.20744 16106 ft 447 kts 257°
2026-04-24 10:07 -20.52302 57.18608 16106 ft 447 kts 257°
2026-04-24 10:07 -20.53225 57.14310 16105 ft 447 kts 257°
2026-04-24 10:07 -20.53689 57.12147 16105 ft 447 kts 257°
2026-04-24 10:07 -20.54609 57.07858 16105 ft 447 kts 257°
2026-04-24 10:08 -20.55297 57.04645 16105 ft 447 kts 257°
2026-04-24 10:08 -20.55986 57.01424 16105 ft 447 kts 257°
2026-04-24 10:08 -20.56675 56.98203 16105 ft 447 kts 257°
2026-04-24 10:08 -20.57130 56.96073 16105 ft 447 kts 257°
2026-04-24 10:09 -20.57824 56.92821 16105 ft 447 kts 257°
2026-04-24 10:09 -20.58509 56.89608 16105 ft 447 kts 257°
2026-04-24 10:09 -20.59423 56.85316 16106 ft 447 kts 257°
2026-04-24 10:09 -20.60110 56.82089 16105 ft 447 kts 257°
2026-04-24 10:10 -20.60564 56.79954 16105 ft 447 kts 257°
2026-04-24 10:10 -20.61248 56.76731 16105 ft 447 kts 257°
2026-04-24 10:10 -20.62160 56.72435 16105 ft 447 kts 257°
2026-04-24 10:10 -20.62617 56.70277 16105 ft 447 kts 257°
2026-04-24 10:11 -20.63301 56.67045 16105 ft 447 kts 257°
2026-04-24 10:11 -20.64209 56.62756 16105 ft 447 kts 257°
2026-04-24 10:11 -20.64662 56.60611 16105 ft 447 kts 257°
2026-04-24 10:11 -20.65570 56.56311 16089 ft 446 kts 257°
2026-04-24 10:12 -20.66247 56.53099 16081 ft 446 kts 257°
2026-04-24 10:12 -20.66926 56.49879 16080 ft 446 kts 257°
2026-04-24 10:12 -20.67608 56.46638 16080 ft 446 kts 257°
2026-04-24 10:12 -20.68284 56.43421 16080 ft 446 kts 257°
2026-04-24 10:13 -20.68960 56.40203 16080 ft 446 kts 257°
2026-04-24 10:13 -20.69635 56.36988 16080 ft 446 kts 257°
2026-04-24 10:13 -20.70310 56.33768 16080 ft 446 kts 257°
2026-04-24 10:13 -20.70984 56.30550 16080 ft 446 kts 257°
2026-04-24 10:14 -20.71593 56.27312 16074 ft 446 kts 262°
2026-04-24 10:14 -20.71793 56.24014 16077 ft 436 kts 269°
2026-04-24 10:14 -20.71755 56.20852 15980 ft 423 kts 271°
2026-04-24 10:14 -20.71658 56.17753 15697 ft 414 kts 272°
2026-04-24 10:15 -20.71566 56.14766 15668 ft 393 kts 272°
2026-04-24 10:15 -20.71514 56.12873 15658 ft 380 kts 271°
2026-04-24 10:15 -20.71423 56.09249 15638 ft 354 kts 271°
2026-04-24 10:15 -20.71381 56.07525 15626 ft 342 kts 271°
2026-04-24 10:16 -20.71302 56.04245 15544 ft 322 kts 271°
2026-04-24 10:16 -20.71244 56.01882 15169 ft 319 kts 271°
2026-04-24 10:16 -20.71186 55.99543 14794 ft 315 kts 271°
2026-04-24 10:16 -20.71129 55.97218 14416 ft 311 kts 271°
2026-04-24 10:17 -20.71091 55.95702 14168 ft 309 kts 271°
2026-04-24 10:17 -20.71015 55.92674 13665 ft 304 kts 271°
2026-04-24 10:17 -20.70959 55.90433 13288 ft 300 kts 271°
2026-04-24 10:17 -20.70903 55.88210 12909 ft 297 kts 271°
2026-04-24 10:18 -20.70847 55.86035 12533 ft 293 kts 271°
2026-04-24 10:18 -20.70792 55.83879 12156 ft 289 kts 271°
2026-04-24 10:18 -20.70738 55.81759 11781 ft 285 kts 271°
2026-04-24 10:18 -20.70684 55.79666 11404 ft 281 kts 271°
2026-04-24 10:19 -20.70648 55.78271 11151 ft 279 kts 271°
2026-04-24 10:19 -20.70577 55.75559 10651 ft 274 kts 271°
2026-04-24 10:19 -20.70524 55.73532 10271 ft 270 kts 271°
2026-04-24 10:19 -20.70472 55.71556 9895 ft 266 kts 271°
2026-04-24 10:20 -20.70438 55.70262 9645 ft 263 kts 271°
2026-04-24 10:20 -20.70369 55.67671 9145 ft 260 kts 271°
2026-04-24 10:20 -20.70318 55.65760 8772 ft 258 kts 271°
2026-04-24 10:20 -20.70282 55.64477 8519 ft 257 kts 272°
2026-04-24 10:21 -20.70216 55.62591 8145 ft 255 kts 272°
2026-04-24 10:21 -20.70123 55.60089 7645 ft 252 kts 272°
2026-04-24 10:21 -20.70077 55.58840 7394 ft 251 kts 272°
2026-04-24 10:21 -20.69985 55.56382 6895 ft 249 kts 272°
2026-04-24 10:22 -20.69916 55.54544 6520 ft 248 kts 272°
2026-04-24 10:22 -20.69848 55.52721 6146 ft 246 kts 272°
2026-04-24 10:22 -20.69779 55.50904 5771 ft 245 kts 272°
2026-04-24 10:22 -20.69733 55.49691 5520 ft 244 kts 272°
2026-04-24 10:23 -20.69643 55.47288 5020 ft 243 kts 272°
2026-04-24 10:23 -20.69574 55.45495 4646 ft 242 kts 272°
2026-04-24 10:23 -20.69529 55.44311 4397 ft 241 kts 272°
2026-04-24 10:23 -20.69461 55.42532 4024 ft 240 kts 272°
2026-04-24 10:24 -20.69393 55.40753 3649 ft 240 kts 272°
2026-04-24 10:24 -20.69303 55.38395 3212 ft 235 kts 272°
2026-04-24 10:24 -20.69238 55.36712 3131 ft 219 kts 272°
2026-04-24 10:24 -20.69178 55.35164 3166 ft 199 kts 272°
2026-04-24 10:25 -20.69122 55.33696 3140 ft 197 kts 272°
2026-04-24 10:25 -20.69065 55.32238 3128 ft 197 kts 272°
2026-04-24 10:25 -20.69027 55.31276 3127 ft 197 kts 272°
2026-04-24 10:25 -20.69359 55.29406 3117 ft 195 kts 232°
2026-04-24 10:26 -20.70006 55.28761 3125 ft 190 kts 205°
2026-04-24 10:26 -20.71677 55.28448 3140 ft 183 kts 176°
2026-04-24 10:26 -20.72529 55.28418 3130 ft 183 kts 178°
2026-04-24 10:26 -20.74231 55.28300 3126 ft 183 kts 180°
2026-04-24 10:27 -20.75501 55.28177 3126 ft 184 kts 181°
2026-04-24 10:27 -20.76776 55.28043 3125 ft 183 kts 179°
2026-04-24 10:27 -20.77576 55.28171 3098 ft 167 kts 151°
2026-04-24 10:27 -20.78362 55.29007 3127 ft 160 kts 115°
2026-04-24 10:28 -20.78997 55.30423 3127 ft 159 kts 113°
2026-04-24 10:28 -20.79483 55.31492 3126 ft 159 kts 114°
2026-04-24 10:28 -20.79976 55.32550 3126 ft 159 kts 114°
2026-04-24 10:28 -20.80302 55.33244 3126 ft 159 kts 114°
2026-04-24 10:29 -20.80969 55.34657 3126 ft 159 kts 114°
2026-04-24 10:29 -20.81456 55.35689 3101 ft 160 kts 114°
2026-04-24 10:29 -20.81965 55.36764 2903 ft 158 kts 114°
2026-04-24 10:29 -20.82458 55.37807 2696 ft 157 kts 114°
2026-04-24 10:30 -20.82950 55.38846 2482 ft 157 kts 114°
2026-04-24 10:30 -20.83441 55.39887 2266 ft 156 kts 114°
2026-04-24 10:30 -20.83928 55.40916 2050 ft 156 kts 114°
2026-04-24 10:30 -20.84414 55.41944 1837 ft 155 kts 114°
2026-04-24 10:31 -20.84895 55.42964 1622 ft 151 kts 114°
2026-04-24 10:31 -20.85344 55.43911 1427 ft 133 kts 114°
2026-04-24 10:31 -20.85613 55.44483 1299 ft 128 kts 114°
2026-04-24 10:31 -20.86008 55.45320 1139 ft 128 kts 114°
2026-04-24 10:32 -20.86540 55.46446 894 ft 121 kts 114°
2026-04-24 10:32 -20.86922 55.47257 750 ft 122 kts 114°
2026-04-24 10:32 -20.87300 55.48058 581 ft 122 kts 114°
2026-04-24 10:32 -20.87679 55.48862 420 ft 122 kts 114°
2026-04-24 10:33 -20.88063 55.49675 257 ft 121 kts 114°
2026-04-24 10:33 -20.88440 55.50475 98 ft 122 kts 114°
2026-04-24 10:33 -20.88774 55.51214 66 ft 85 kts 114°
2026-04-24 10:33 -20.88958 55.51583 71 ft 28 kts 119°
2026-04-24 10:34 -20.89024 55.51719 72 ft 19 kts 116°
2026-04-24 10:34 -20.89062 55.51799 73 ft 18 kts 117°
2026-04-24 10:34 -20.89140 55.51963 74 ft 19 kts 117°
2026-04-24 10:34 -20.89195 55.52079 75 ft 11 kts 116°
2026-04-24 10:35 -20.89224 55.52141 75 ft 9 kts 117°
2026-04-24 10:35 -20.89248 55.52193 76 ft 7 kts 117°
2026-04-24 10:35 -20.89274 55.52233 76 ft 5 kts 146°
2026-04-24 10:35 -20.89303 55.52242 78 ft 5 kts 187°
2026-04-24 10:36 -20.89337 55.52227 81 ft 5 kts 211°
2026-04-24 10:36 -20.89369 55.52205 83 ft 6 kts 213°
2026-04-24 10:36 -20.89407 55.52155 87 ft 11 kts 266°
2026-04-24 10:36 -20.89376 55.52067 88 ft 15 kts 298°
2026-04-24 10:37 -20.89318 55.51949 87 ft 20 kts 297°
2026-04-24 10:37 -20.89249 55.51802 86 ft 25 kts 296°
2026-04-24 10:37 -20.89167 55.51624 85 ft 29 kts 296°
2026-04-24 10:37 -20.89080 55.51437 83 ft 26 kts 297°
2026-04-24 10:38 -20.89030 55.51334 81 ft 11 kts 290°
2026-04-24 10:38 -20.89047 55.51297 83 ft 0 kts 190°
2026-04-24 10:38 -20.89062 55.51302 84 ft 3 kts 132°
2026-04-24 10:39 -20.89068 55.51309 85 ft 1 kts 136°
2026-04-24 10:39 -20.89073 55.51312 85 ft 0 kts 185°
2026-04-24 10:39 -20.89082 55.51309 85 ft 1 kts 252°
2026-04-24 10:39 -20.89081 55.51303 86 ft 1 kts 315°
2026-04-24 10:40 -20.89074 55.51303 85 ft 1 kts 80°
2026-04-24 10:40 -20.89075 55.51309 85 ft 1 kts 131°
2026-04-24 10:40 -20.89077 55.51311 85 ft 0 kts 150°
2026-04-24 10:40 -20.89092 55.51313 86 ft 0 kts 219°
2026-04-24 10:41 -20.89094 55.51310 86 ft 2 kts 230°
2026-04-24 10:41 -20.89100 55.51303 87 ft 2 kts 224°
2026-04-24 10:41 -20.89104 55.51299 87 ft 0 kts 207°